{"data":{"norad_id":48918,"epoch":"2026-05-25T07:10:41.420064Z","epoch_age_seconds":39289,"freshness":"FRESH","line1":"1 48918U 21059AR  26145.29909051  .00166457  12327-4  55112-3 0  9995","line2":"2 48918  97.6372 341.7126 0002679  70.2644 289.8917 15.90387983274344","mean_motion":15.90387983,"eccentricity":0.0002679,"inclination_deg":97.6372,"raan_deg":341.7126,"arg_perigee_deg":70.2644,"mean_anomaly_deg":289.8917,"bstar":0.00055112,"rev_number":27434,"period_min":90.54394370383,"perigee_km":299.40694127337,"apogee_km":302.98572807409,"semimajor_km":6679.3333346737,"source":"CELESTRAK","updated_at":"2026-05-25T13:37:56.976950Z"}}